Location: Fort Worth, Tx
(32.7431°N, 97.3695°W)
Time: 20:00:33
(UTC-04:00)

Vanguard 1 Rocket - Pass Details

Date: 21 September 2024
Orbit: 650 x 4218 km, 34.3° (Epoch: 11 October)

Event Time Altitude Azimuth Distance (km) Brightness Sun altitude
Exits shadow 03:58:50 51° 99° (E) 2,803 9.7 -49.8°
Drops below altitude 10° 04:12:49 10° 74° (ENE) 6,370 12.1 -47.8°
Sets 04:18:53 0° 73° (ENE) 7,843 12.8 -46.9°
